Hourly Weather Rugozero

Today, 18 April, Sunday

Time Temperature Precipitation Wind Pressure Humidity
00:00 +1°C° 0 mm 1 mps 761 mmHg 97%
01:00 0°C° 0 mm 1 mps 761 mmHg 97%
02:00 -2°C° 0 mm 1 mps 761 mmHg 98%
03:00 -3°C° 0 mm 0 mps 761 mmHg 98%
04:00 -3°C° 0 mm 0 mps 761 mmHg 98%
05:00 -3°C° 0 mm 0 mps 761 mmHg 98%
06:00 0°C° 0 mm 1 mps 761 mmHg 94%
07:00 +3°C° 0 mm 1 mps 761 mmHg 89%
08:00 +5°C° 0 mm 1 mps 761 mmHg 84%
09:00 +5°C° 0 mm 2 mps 762 mmHg 80%
10:00 +6°C° 0 mm 2 mps 762 mmHg 77%
11:00 +7°C° 0 mm 2 mps 762 mmHg 73%
12:00 +7°C° 0 mm 2 mps 762 mmHg 71%
13:00 +8°C° 0 mm 2 mps 762 mmHg 69%
14:00 +8°C° 0 mm 2 mps 762 mmHg 67%
15:00 +7°C° 0 mm 2 mps 761 mmHg 69%
16:00 +7°C° 0 mm 2 mps 761 mmHg 70%
17:00 +8°C° 0 mm 1 mps 761 mmHg 72%
18:00 +7°C° 0 mm 1 mps 761 mmHg 75%
19:00 +6°C° 0 mm 1 mps 762 mmHg 78%
20:00 +5°C° 0 mm 1 mps 762 mmHg 81%
21:00 +3°C° 0 mm 1 mps 762 mmHg 85%
22:00 +2°C° 0 mm 1 mps 762 mmHg 89%
23:00 +1°C° 0 mm 1 mps 762 mmHg 93%

Tomorrow, 19 April, Monday

Time Temperature Precipitation Wind Pressure Humidity
00:00 0°C° 0 mm 1 mps 762 mmHg 93%
01:00 0°C° 0 mm 1 mps 762 mmHg 94%
02:00 -1°C° 0 mm 1 mps 762 mmHg 94%
03:00 -1°C° 0 mm 1 mps 762 mmHg 94%
04:00 0°C° 0 mm 1 mps 762 mmHg 94%
05:00 0°C° 0 mm 1 mps 762 mmHg 94%
06:00 +2°C° 0 mm 1 mps 762 mmHg 86%
07:00 +4°C° 0 mm 1 mps 762 mmHg 79%
08:00 +6°C° 0 mm 1 mps 762 mmHg 71%
09:00 +6°C° 0 mm 2 mps 762 mmHg 68%
10:00 +7°C° 0 mm 2 mps 761 mmHg 64%
11:00 +8°C° 0 mm 2 mps 761 mmHg 61%
12:00 +8°C° 0 mm 2 mps 761 mmHg 58%
13:00 +9°C° 0 mm 2 mps 761 mmHg 56%
14:00 +9°C° 0 mm 2 mps 760 mmHg 53%
15:00 +9°C° 0 mm 2 mps 760 mmHg 55%
16:00 +10°C° 0 mm 1 mps 760 mmHg 56%
17:00 +10°C° 0 mm 1 mps 760 mmHg 58%
18:00 +7°C° 0 mm 2 mps 760 mmHg 64%
19:00 +5°C° 0 mm 2 mps 760 mmHg 71%
20:00 +4°C° 0 mm 2 mps 759 mmHg 77%
21:00 +3°C° 0 mm 2 mps 759 mmHg 78%
22:00 +3°C° 0 mm 2 mps 759 mmHg 78%
23:00 +2°C° 0 mm 2 mps 759 mmHg 79%

Day after tomorrow, 20 April, Tuesday

Time Temperature Precipitation Wind Pressure Humidity
00:00 +2°C° 0 mm 2 mps 759 mmHg 79%
01:00 +3°C° 0 mm 1 mps 759 mmHg 80%
02:00 +2°C° 0 mm 1 mps 759 mmHg 80%
03:00 +2°C° 0 mm 1 mps 759 mmHg 79%
04:00 +2°C° 0 mm 1 mps 759 mmHg 79%
05:00 +2°C° 0 mm 1 mps 759 mmHg 78%
06:00 +3°C° 0 mm 1 mps 758 mmHg 73%
07:00 +3°C° 0 mm 2 mps 758 mmHg 69%
08:00 +4°C° 0 mm 2 mps 758 mmHg 64%
09:00 +5°C° 0 mm 2 mps 758 mmHg 60%
10:00 +6°C° 0 mm 2 mps 757 mmHg 56%
11:00 +7°C° 0 mm 3 mps 757 mmHg 51%
12:00 +8°C° 0 mm 3 mps 757 mmHg 49%
13:00 +8°C° 0 mm 3 mps 756 mmHg 46%
14:00 +9°C° 0 mm 3 mps 756 mmHg 44%
15:00 +9°C° 0 mm 3 mps 755 mmHg 46%
16:00 +8°C° 0 mm 3 mps 755 mmHg 49%
17:00 +8°C° 0 mm 3 mps 754 mmHg 51%
18:00 +7°C° 0 mm 3 mps 754 mmHg 57%
19:00 +5°C° 0 mm 2 mps 754 mmHg 64%
20:00 +4°C° 0 mm 2 mps 753 mmHg 70%
21:00 +3°C° 0 mm 2 mps 753 mmHg 73%
22:00 +3°C° 0 mm 2 mps 753 mmHg 75%
23:00 +2°C° 0 mm 2 mps 752 mmHg 77%

21 April, Wednesday

Time Temperature Precipitation Wind Pressure Humidity
00:00 +2°C° 0 mm 2 mps 752 mmHg 78%
01:00 +2°C° 0 mm 2 mps 751 mmHg 79%
02:00 +2°C° 0 mm 2 mps 751 mmHg 80%
03:00 +2°C° 0 mm 1 mps 750 mmHg 81%
04:00 +2°C° 0 mm 1 mps 750 mmHg 81%
05:00 +2°C° 0 mm 1 mps 749 mmHg 81%
06:00 +2°C° 0 mm 2 mps 749 mmHg 75%
07:00 +3°C° 0 mm 2 mps 748 mmHg 69%
08:00 +5°C° 0 mm 2 mps 748 mmHg 63%
09:00 +5°C° 0 mm 2 mps 747 mmHg 59%
10:00 +5°C° 0 mm 3 mps 746 mmHg 56%
11:00 +7°C° 0 mm 3 mps 746 mmHg 52%
12:00 +7°C° 0 mm 3 mps 745 mmHg 52%
13:00 +7°C° 0 mm 3 mps 744 mmHg 51%
14:00 +6°C° 0 mm 4 mps 743 mmHg 51%
15:00 +5°C° 0 mm 3 mps 743 mmHg 57%
16:00 +4°C° 0 mm 3 mps 742 mmHg 63%
17:00 +3°C° 0 mm 3 mps 742 mmHg 69%
18:00 +3°C° 0.2 mm 3 mps 741 mmHg 79%
19:00 +3°C° 0.2 mm 2 mps 741 mmHg 88%
20:00 +2°C° 0.2 mm 2 mps 740 mmHg 98%
21:00 +3°C° 0.2 mm 1 mps 740 mmHg 98%
22:00 +3°C° 0.2 mm 1 mps 739 mmHg 99%
23:00 +3°C° 0.2 mm 1 mps 739 mmHg 99%

22 April, Thursday

Time Temperature Precipitation Wind Pressure Humidity
00:00 +3°C° 0.2 mm 1 mps 739 mmHg 99%
01:00 +2°C° 0.2 mm 0 mps 738 mmHg 99%
02:00 +1°C° 0.2 mm 0 mps 738 mmHg 99%
03:00 +1°C° 0.2 mm 0 mps 738 mmHg 99%
04:00 +1°C° 0.2 mm 0 mps 738 mmHg 99%
05:00 +1°C° 0.2 mm 0 mps 738 mmHg 99%
06:00 +1°C° 0.2 mm 0 mps 738 mmHg 99%
07:00 +3°C° 0.2 mm 1 mps 738 mmHg 98%
08:00 +3°C° 0.2 mm 1 mps 738 mmHg 98%
09:00 +3°C° 0 mm 1 mps 738 mmHg 96%
10:00 +2°C° 0 mm 2 mps 739 mmHg 93%
11:00 +2°C° 0 mm 2 mps 739 mmHg 90%
12:00 +3°C° 0 mm 2 mps 739 mmHg 86%
13:00 +4°C° 0 mm 2 mps 740 mmHg 81%
14:00 +4°C° 0 mm 3 mps 740 mmHg 77%
15:00 +4°C° 0 mm 3 mps 741 mmHg 77%
16:00 +4°C° 0 mm 3 mps 741 mmHg 78%
17:00 +5°C° 0 mm 3 mps 741 mmHg 78%
18:00 +4°C° 0.1 mm 3 mps 742 mmHg 82%
19:00 +3°C° 0.1 mm 3 mps 742 mmHg 85%
20:00 +3°C° 0.1 mm 3 mps 743 mmHg 89%
21:00 +2°C° 0 mm 3 mps 743 mmHg 88%
22:00 +1°C° 0 mm 3 mps 744 mmHg 87%
23:00 +1°C° 0 mm 3 mps 744 mmHg 86%

23 April, Friday

Time Temperature Precipitation Wind Pressure Humidity
00:00 0°C° 0 mm 3 mps 744 mmHg 86%
01:00 -1°C° 0 mm 3 mps 745 mmHg 86%
02:00 -1°C° 0 mm 3 mps 745 mmHg 86%
03:00 -1°C° 0 mm 3 mps 745 mmHg 85%
04:00 -1°C° 0 mm 3 mps 745 mmHg 85%
05:00 -2°C° 0 mm 2 mps 746 mmHg 85%
06:00 -1°C° 0 mm 2 mps 746 mmHg 81%
07:00 0°C° 0 mm 3 mps 746 mmHg 77%
08:00 0°C° 0 mm 3 mps 746 mmHg 73%
09:00 +1°C° 0.1 mm 3 mps 746 mmHg 71%
10:00 +1°C° 0.1 mm 3 mps 746 mmHg 69%
11:00 +1°C° 0.1 mm 3 mps 746 mmHg 68%
12:00 +2°C° 0 mm 3 mps 746 mmHg 60%
13:00 +4°C° 0 mm 4 mps 746 mmHg 52%
14:00 +5°C° 0 mm 4 mps 746 mmHg 44%
15:00 +4°C° 0 mm 4 mps 747 mmHg 46%
16:00 +4°C° 0 mm 4 mps 747 mmHg 49%
17:00 +3°C° 0 mm 3 mps 747 mmHg 51%
18:00 +2°C° 0 mm 3 mps 747 mmHg 60%
19:00 +1°C° 0 mm 3 mps 747 mmHg 68%
20:00 +1°C° 0 mm 2 mps 748 mmHg 77%
21:00 -1°C° 0 mm 3 mps 748 mmHg 81%
22:00 -1°C° 0 mm 3 mps 748 mmHg 85%
23:00 -1°C° 0 mm 3 mps 748 mmHg 89%
Show more